Abu Musa, Iran

7:29 PM IRST on November 27, 2014 (GMT +0330)
Abumusa | Change Station
CLOSE
Current Station
Airport
Location: ABUMUSA ISLAND,
Elevation: 23 ft
Nearby Weather Stations

Elev 23 ft 25.88 °N, 55.03 °E | Updated 59 minutes ago

Clear
Clear
79 °F
Feels Like 79 °F
N
16
Wind Variable Wind from West

Today
High -- | Low -- °F
--% Chance of Precip.
Yesterday
High -- | Low -- °F
Precip. -- in
6:17 AM 4:59 PM
Waxing Crescent, 30% visible
Pressure 29.89 in
Visibility -9999.0 miles
Clouds
Dew Point 61 °F
Humidity 54%
Rainfall 0.00 in
Snow Depth Not available.
UV Not available.
Pollen Not available.
Air Quality Not available.
Flu Activity Not available.
METAR OIBA 271500Z 28014KT CAVOK 26/16 Q1012

More Conditions Fewer Conditions

Pressure 29.89 in
Visibility -9999.0 miles
Clouds
Dew Point 61 °F
Humidity 54%
Rainfall 0.00 in
Snow Depth Not available.
UV Not available.
Pollen Not available.
Air Quality Not available.
Flu Activity Not available.
METAR OIBA 271500Z 28014KT CAVOK 26/16 Q1012

More Conditions Fewer Conditions

10-Day Weather Forecast

Almanac

Astronomy

Nov. 27, 2014 Rise Set
Actual Time
Civil Twilight
Nautical Twilight
Astronomical Twilight
Moon
Length of Visible Light
Length of Day
Tomorrow will be .
, % of the Moon is Illuminated

Today's Extremes

Country Highs Country Lows

Community

WunderPhotos

Upload Photos

1,774,019 photos uploaded!

WunderBlogs® & News

Nearby

Air Quality

  Air Quality AQ Index Pollutant
Not available.

Snow Depth

Station Depth Elevation

Earthquake Activity

City Distance Mag. Time & Date
Minimum magnitude displayed is 2.5.

Coastal Water Temperatures

Place Temperature

Nearby Weather Stations